Tracking 19484 objects as of 20-Jan-2019
HD Live streaming from Space Station
objects crossing your sky now

SUPERBIRD B1

Track SUPERBIRD B1 now!
SUPERBIRD B1 is classified as:


NORAD ID: 21893
Int'l Code: 1992-010A
Perigee: 36,097.4 km
Apogee: 36,181.0 km
Inclination: 13.1 °
Period: 1,453.8 minutes
Semi major axis: 42510 km
RCS: 7.9433 m2 (large)
Launch date: February 26, 1992
Source: Japan (JPN)
Launch site: FRENCH GUIANA (FRGUI)
aabbcc
Your satellite tracking list
Your tracking list is empty




NASA's NSSDC Master Catalog

Two Line Element Set (TLE):
1 21893U 92010A   19019.06024740 +.00000036 +00000-0 +00000-0 0  9997
2 21893 013.0950 026.7218 0009836 033.8229 326.2849 00.99051889097517
Source of the keplerian elements: AFSPC